EN

Hourly Weather Alpe di Siusi

Today, 24 January, Sunday

Time Temperature Precipitation Wind Pressure Humidity
00:00 -12°C° 0 mm 1 mps 561 mmHg 87%
01:00 -12°C° 0 mm 1 mps 562 mmHg 86%
02:00 -13°C° 0 mm 1 mps 561 mmHg 86%
03:00 -13°C° 0 mm 1 mps 561 mmHg 86%
04:00 -14°C° 0 mm 1 mps 561 mmHg 86%
05:00 -14°C° 0 mm 1 mps 561 mmHg 84%
06:00 -15°C° 0 mm 1 mps 561 mmHg 83%
07:00 -15°C° 0 mm 1 mps 561 mmHg 81%
08:00 -14°C° 0 mm 1 mps 562 mmHg 82%
09:00 -12°C° 0 mm 1 mps 563 mmHg 83%
10:00 -11°C° 0 mm 1 mps 564 mmHg 84%
11:00 -10°C° 0 mm 1 mps 565 mmHg 83%
12:00 -9°C° 0 mm 1 mps 565 mmHg 81%
13:00 -8°C° 0 mm 1 mps 566 mmHg 80%
14:00 -9°C° 0 mm 1 mps 565 mmHg 82%
15:00 -9°C° 0 mm 1 mps 565 mmHg 84%
16:00 -10°C° 0 mm 1 mps 565 mmHg 86%
17:00 -12°C° 0 mm 1 mps 564 mmHg 84%
18:00 -13°C° 0 mm 1 mps 564 mmHg 81%
19:00 -15°C° 0 mm 1 mps 563 mmHg 78%
20:00 -16°C° 0 mm 1 mps 563 mmHg 77%
21:00 -16°C° 0 mm 1 mps 562 mmHg 76%
22:00 -17°C° 0 mm 1 mps 562 mmHg 75%
23:00 -17°C° 0 mm 1 mps 562 mmHg 74%

Tomorrow, 25 January, Monday

Time Temperature Precipitation Wind Pressure Humidity
00:00 -17°C° 0 mm 1 mps 562 mmHg 74%
01:00 -17°C° 0 mm 1 mps 562 mmHg 74%
02:00 -17°C° 0 mm 1 mps 562 mmHg 75%
03:00 -17°C° 0 mm 1 mps 563 mmHg 76%
04:00 -17°C° 0 mm 1 mps 563 mmHg 77%
05:00 -17°C° 0 mm 1 mps 563 mmHg 76%
06:00 -18°C° 0 mm 2 mps 564 mmHg 75%
07:00 -18°C° 0 mm 2 mps 564 mmHg 75%
08:00 -15°C° 0 mm 1 mps 565 mmHg 76%
09:00 -14°C° 0 mm 1 mps 566 mmHg 78%
10:00 -13°C° 0 mm 1 mps 567 mmHg 80%
11:00 -12°C° 0 mm 1 mps 568 mmHg 78%
12:00 -10°C° 0 mm 1 mps 569 mmHg 76%
13:00 -9°C° 0 mm 1 mps 570 mmHg 74%
14:00 -10°C° 0 mm 1 mps 570 mmHg 77%
15:00 -10°C° 0 mm 1 mps 570 mmHg 80%
16:00 -11°C° 0 mm 1 mps 570 mmHg 83%
17:00 -13°C° 0 mm 1 mps 569 mmHg 82%
18:00 -15°C° 0 mm 1 mps 569 mmHg 80%
19:00 -17°C° 0 mm 1 mps 568 mmHg 78%
20:00 -17°C° 0 mm 1 mps 568 mmHg 78%
21:00 -17°C° 0 mm 1 mps 569 mmHg 79%
22:00 -17°C° 0 mm 1 mps 569 mmHg 79%
23:00 -17°C° 0 mm 1 mps 569 mmHg 79%

Day after tomorrow, 26 January, Tuesday

Time Temperature Precipitation Wind Pressure Humidity
00:00 -17°C° 0 mm 1 mps 569 mmHg 79%
01:00 -17°C° 0 mm 1 mps 569 mmHg 78%
02:00 -17°C° 0 mm 1 mps 569 mmHg 78%
03:00 -18°C° 0 mm 1 mps 569 mmHg 77%
04:00 -18°C° 0 mm 1 mps 569 mmHg 77%
05:00 -18°C° 0 mm 1 mps 569 mmHg 77%
06:00 -18°C° 0 mm 1 mps 569 mmHg 76%
07:00 -18°C° 0 mm 1 mps 569 mmHg 76%
08:00 -17°C° 0 mm 1 mps 571 mmHg 78%
09:00 -15°C° 0 mm 1 mps 572 mmHg 79%
10:00 -13°C° 0 mm 1 mps 573 mmHg 81%
11:00 -12°C° 0 mm 1 mps 574 mmHg 79%
12:00 -10°C° 0 mm 1 mps 574 mmHg 77%
13:00 -9°C° 0 mm 1 mps 575 mmHg 75%
14:00 -10°C° 0 mm 1 mps 574 mmHg 79%
15:00 -10°C° 0 mm 1 mps 574 mmHg 83%
16:00 -10°C° 0 mm 0 mps 574 mmHg 86%
17:00 -12°C° 0 mm 1 mps 573 mmHg 84%
18:00 -14°C° 0 mm 1 mps 573 mmHg 81%
19:00 -16°C° 0 mm 1 mps 572 mmHg 79%
20:00 -16°C° 0 mm 1 mps 572 mmHg 79%
21:00 -16°C° 0 mm 1 mps 572 mmHg 79%
22:00 -16°C° 0 mm 1 mps 572 mmHg 80%
23:00 -15°C° 0 mm 1 mps 572 mmHg 79%

27 January, Wednesday

Time Temperature Precipitation Wind Pressure Humidity
00:00 -15°C° 0 mm 1 mps 572 mmHg 79%
01:00 -15°C° 0 mm 1 mps 572 mmHg 78%
02:00 -15°C° 0 mm 1 mps 572 mmHg 78%
03:00 -15°C° 0 mm 1 mps 572 mmHg 78%
04:00 -15°C° 0 mm 1 mps 571 mmHg 78%
05:00 -15°C° 0 mm 1 mps 571 mmHg 79%
06:00 -14°C° 0 mm 1 mps 571 mmHg 81%
07:00 -14°C° 0 mm 1 mps 571 mmHg 83%
08:00 -13°C° 0.6 mm 1 mps 572 mmHg 86%
09:00 -12°C° 0.6 mm 0 mps 572 mmHg 90%
10:00 -11°C° 0.6 mm 0 mps 573 mmHg 94%
11:00 -10°C° 0.4 mm 1 mps 574 mmHg 93%
12:00 -8°C° 0.4 mm 1 mps 574 mmHg 92%
13:00 -7°C° 0.4 mm 1 mps 575 mmHg 92%
14:00 -7°C° 0.1 mm 1 mps 575 mmHg 92%
15:00 -7°C° 0.1 mm 1 mps 575 mmHg 92%
16:00 -7°C° 0.1 mm 1 mps 575 mmHg 93%
17:00 -8°C° 0 mm 1 mps 575 mmHg 91%
18:00 -12°C° 0 mm 2 mps 575 mmHg 89%
19:00 -13°C° 0 mm 2 mps 575 mmHg 87%
20:00 -14°C° 0 mm 2 mps 575 mmHg 85%
21:00 -14°C° 0 mm 2 mps 575 mmHg 83%
22:00 -14°C° 0 mm 2 mps 575 mmHg 81%
23:00 -15°C° 0 mm 2 mps 575 mmHg 80%

28 January, Thursday

Time Temperature Precipitation Wind Pressure Humidity
00:00 -15°C° 0 mm 2 mps 575 mmHg 79%
01:00 -13°C° 0 mm 1 mps 575 mmHg 78%
02:00 -13°C° 0 mm 1 mps 575 mmHg 75%
03:00 -13°C° 0 mm 1 mps 574 mmHg 73%
04:00 -13°C° 0 mm 1 mps 574 mmHg 71%
05:00 -12°C° 0 mm 1 mps 574 mmHg 70%
06:00 -12°C° 0 mm 1 mps 574 mmHg 68%
07:00 -12°C° 0 mm 1 mps 574 mmHg 66%
08:00 -10°C° 0 mm 1 mps 575 mmHg 71%
09:00 -8°C° 0 mm 1 mps 576 mmHg 76%
10:00 -6°C° 0 mm 1 mps 576 mmHg 81%
11:00 -6°C° 0 mm 1 mps 576 mmHg 85%
12:00 -4°C° 0 mm 1 mps 576 mmHg 89%
13:00 -5°C° 0 mm 0 mps 576 mmHg 93%
14:00 -5°C° 0 mm 0 mps 576 mmHg 93%
15:00 -5°C° 0 mm 0 mps 576 mmHg 94%
16:00 -5°C° 0 mm 0 mps 575 mmHg 94%
17:00 -6°C° 0 mm 0 mps 575 mmHg 91%
18:00 -7°C° 0 mm 0 mps 574 mmHg 89%
19:00 -8°C° 0 mm 1 mps 574 mmHg 87%

29 January, Friday

Time Temperature Precipitation Wind Pressure Humidity
Show more